Location: ???????
(60.4329°N, 46.8119°E)
Time: 21:50:46
(UTC+00:00)

Daily predictions for brighter satellites

Satellite Brightness Start Highest point End
(mag) Time Altitude Azimuth Time Altitude Azimuth Time Altitude Azimuth
Cosmos 2297 4.0 12:31:31 10° NW 12:37:07 49° NE 12:42:38 10° ESE
Cosmos 2344 4.0 12:29:26 10° W 12:37:24 75° N 12:47:47 10° E
Cosmos 1048 Rocket 4.3 12:33:22 10° SSW 12:38:41 62° ESE 12:44:00 10° NE
Cosmos 1400 Rocket 3.0 12:35:14 10° S 12:39:12 55° E 12:43:08 10° NNE
ISS -0.2 12:42:46 10° SW 12:43:43 11° SSW 12:44:42 10° S
PSLV R/B 4.0 12:42:35 10° SSE 12:46:30 81° WSW 12:50:33 10° NNW
NOSS 3-1 (C) 3.8 12:41:24 10° W 12:47:51 70° N 12:55:34 10° E
COSMOS 2455 2.9 12:42:42 10° SW 12:48:45 81° SE 12:54:48 10° NE
Cosmos 2279 Rocket 4.0 12:42:38 10° NNW 12:48:56 69° ENE 12:55:10 10° SSE
CZ-4B DEB 4.3 12:43:30 10° SSE 12:48:59 86° WSW 12:54:32 10° NNW
NOSS 2-3 (E) 4.4 12:44:56 10° W 12:50:06 67° N 12:56:48 10° ENE
Cosmos 1602 3.8 12:47:06 10° NNW 12:51:00 88° W 12:54:55 10° SSE
Cosmos 1515 Rocket 3.6 12:48:30 10° SSW 12:52:51 82° WNW 12:57:14 10° NNE
Meteor 1-26 Rocket 4.3 12:47:46 10° S 12:53:26 63° E 12:58:58 10° NNE
Okean O Rocket 1.6 12:49:41 10° SSE 12:54:00 69° ENE 12:58:22 10° NNW
Cosmos 1441 Rocket 4.4 12:51:09 10° N 12:54:09 21° NE 12:57:07 10° ESE
Cosmos 1707 Rocket 4.4 12:50:42 10° SSE 12:54:42 33° E 12:58:44 10° NNE
SL-16 R/B 3.0 12:48:36 10° NNE 12:54:42 63° WNW 13:00:47 10° SW
USA 229 DEB 3.8 12:50:46 10° WNW 12:57:41 71° N 13:05:02 10° E
USA 229 3.8 12:50:52 10° WNW 12:57:47 71° N 13:05:07 10° E
FENGYUN 3A 3.7 12:52:37 10° SSE 12:58:03 90° WSW 13:03:31 10° NNW
Meteor 1-5 Rocket 4.2 12:53:33 10° NNW 12:59:10 66° ENE 13:04:34 10° SSE
COSMOS 2428 3.6 12:54:49 10° S 12:59:51 33° ESE 13:04:55 10° NE
Cosmos 1634 Rocket 4.2 12:53:46 10° NNW 12:59:58 78° W 13:06:09 10° S
NOSS 2-3 (D) 4.4 12:55:53 10° W 13:01:04 67° N 13:07:47 10° E
USA 267 4.2 12:55:00 10° SE 13:01:22 53° SSW 13:07:46 10° W
Meteor 1-28 Rocket 3.5 12:58:32 10° NNE 13:02:14 51° E 13:05:55 10° S
Landsat 5 3.4 12:58:23 10° NNE 13:02:20 72° ESE 13:06:25 10° S
NOSS 3-1 (A) 3.8 12:56:30 10° W 13:02:58 70° N 13:10:38 10° E
H-2A R/B 3.4 13:00:06 10° SE 13:03:24 31° ENE 13:06:41 10° N
Cosmos 2228 Rocket 3.2 12:59:03 10° S 13:03:39 87° ESE 13:08:17 10° NNE
Helios 1A Rocket 2.9 12:59:45 10° SSE 13:03:51 78° ENE 13:07:56 10° NNW
NOSS 8 (F) 4.3 13:01:40 10° WSW 13:04:45 82° SSE 13:07:58 12° ENE
APEX 4.4 13:02:38 10° WNW 13:04:52 20° NNW 13:07:19 10° NNE
NOSS 3-4 (A) 4.0 12:59:58 10° SSW 13:05:46 47° SE 13:11:46 11° ENE
NOSS 3-4 (C) 4.0 13:00:05 10° SSW 13:05:53 46° SE 13:11:52 11° ENE
Cosmos 1908 Rocket 4.2 13:02:21 10° N 13:06:23 33° ENE 13:10:21 10° SE
Genesis I 3.5 13:04:22 10° WNW 13:08:18 72° SW 13:12:11 10° SE
Uosat 12 SS-18 rocket 4.5 13:02:59 10° WNW 13:08:38 66° NNE 13:13:19 10° ESE
Cosmos 1689 Rocket 3.2 13:07:15 11° NE 13:09:49 28° E 13:12:30 10° SSE
METEOR-M 4.4 13:05:07 10° SSE 13:10:28 75° WSW 13:15:52 10° NNW
Cosmos 1933 3.8 13:08:20 10° SSW 13:12:19 60° WNW 13:16:20 10° N
NOAA 12 4.5 13:08:06 10° SE 13:13:01 41° ENE 13:17:56 10° N
ERS-2 4.3 13:10:16 10° N 13:13:02 21° NW 13:15:48 10° WSW
Envisat 3.5 13:08:53 10° ESE 13:13:29 35° NE 13:18:06 10° N
CZ-4B R/B 3.3 13:09:02 10° SSE 13:14:25 82° WSW 13:19:58 10° NNW
Cosmos 1666 3.4 13:11:10 10° N 13:14:35 31° ENE 13:17:58 10° SE
Cosmos 1992 Rocket 4.1 13:09:32 10° NW 13:14:47 84° WSW 13:20:02 10° SSE
NOSS 2-2 (C) 3.6 13:11:07 10° SW 13:15:00 76° SSE 13:19:19 13° ENE
Cosmos 2278 Rocket 2.8 13:09:44 10° NW 13:15:21 64° WSW 13:20:57 10° SSE
Okean-O 3.2 13:11:41 10° ESE 13:15:41 34° ENE 13:19:43 10° N
H-2A R/B 2.6 13:13:29 10° NNE 13:17:31 55° WNW 13:21:32 10° SW
CZ-4B R/B 1.6 13:14:32 10° NNE 13:18:02 57° ESE 13:21:29 10° S
Feng Yun 1-1 Rocket 4.2 13:13:05 10° SE 13:18:22 60° ENE 13:23:46 10° NNW
Cosmos 2322 3.9 13:13:29 10° SSW 13:19:06 61° ESE 13:24:18 12° NE
RESURS DK-1 3.4 13:16:02 10° S 13:19:38 30° ESE 13:22:28 14° ENE
SAR-Lupe-4 4.2 13:18:43 10° NNE 13:22:16 55° WNW 13:25:47 10° SW
Cosmos 2360 Rocket 2.2 13:17:39 10° SW 13:23:21 87° SE 13:28:40 12° NE
Cosmos 1939 Rocket 4.5 13:23:16 14° NE 13:23:32 15° NE 13:25:43 10° NNE
Cosmos 1606 3.5 13:21:05 10° SSW 13:24:48 51° WNW 13:28:35 10° N
Cosmos 2369 Rocket 2.6 13:21:28 10° NW 13:26:51 43° NNE 13:32:14 10° ESE
Cosmos 1536 2.9 13:23:39 10° N 13:27:39 55° ENE 13:31:36 10° SSE
YAOGAN 1 3.7 13:24:19 10° ESE 13:27:42 23° NE 13:31:07 10° N
Cosmos 1733 Rocket 3.0 13:24:04 10° NNW 13:28:29 85° ENE 13:32:53 10° SSE
Cosmos 1980 Rocket 3.2 13:24:49 10° W 13:30:08 37° NNW 13:34:49 13° NE
H-2A R/B 3.7 13:30:05 13° NE 13:30:36 13° NE 13:32:50 10° N
SL-08 R/B 4.0 13:27:15 10° NNE 13:32:06 56° WNW 13:36:51 10° SW
NOSS 2-2 (E) 3.6 13:32:03 10° WSW 13:36:06 85° NNW 13:40:00 17° ENE
NOSS 2-3 (C) 4.4 13:32:58 10° WNW 13:38:22 68° N 13:44:34 13° E
Cosmos 1656 Rocket 4.3 13:33:32 10° NW 13:38:30 34° NNE 13:42:16 16° E
SL-16 R/B 3.8 13:36:43 10° SE 13:39:47 15° E 13:40:42 14° E
Cosmos 1867 3.6 13:35:35 10° WNW 13:41:06 87° SW 13:46:35 10° SE
SMAP 3.0 13:36:38 10° SSE 13:41:17 75° ENE 13:45:58 10° NNW
AQUARIUS 4.1 13:37:21 10° SSE 13:41:50 70° ENE 13:46:20 10° NNW
Meteor 2-6 Rocket 4.1 13:36:30 10° S 13:41:51 65° E 13:47:18 10° NNE
Lacrosse 5 rocket 3.0 13:38:34 10° SSW 13:41:54 23° SE 13:44:17 14° ESE
IRS-1C Rocket 4.1 13:36:55 10° SSE 13:42:12 84° ENE 13:47:31 10° NNW
Cosmos 921 Rocket 2.9 13:38:05 10° NNW 13:42:19 61° NE 13:46:36 10° SE
ATLAS 2AS CENTAUR R/B 3.1 13:35:17 10° SW 13:43:20 78° SE 13:49:43 17° ENE
CZ-4C R/B 4.3 13:41:33 10° N 13:44:29 33° WNW 13:47:22 10° SW
Cosmos 494 Rocket 4.1 13:40:13 10° SW 13:45:30 83° WNW 13:50:10 14° NNE
Radarsat 4.5 13:40:33 10° SSE 13:45:45 75° ENE 13:50:59 10° NNW
Cosmos 1743 3.4 13:42:17 10° N 13:45:48 32° ENE 13:49:18 10° SE
SL-4 R/B 3.9 13:44:11 10° SW 13:47:00 20° SSE 13:49:59 10° ESE
Cosmos 2237 Rocket 3.0 13:43:11 10° S 13:48:11 33° ESE 13:51:24 19° ENE
CORIOLIS 4.1 13:43:52 10° SSE 13:49:19 78° ENE 13:54:48 10° NNW
YAOGAN 6 3.2 13:47:36 10° SE 13:50:52 33° ENE 13:54:11 10° N
Cosmos 2333 Rocket 2.3 13:45:15 10° SSW 13:50:56 64° ESE 13:55:20 18° NE
Cosmos 2322 Rocket 2.8 13:45:51 10° WSW 13:51:22 52° NW 13:55:55 15° NE
ALOS 3.8 13:47:57 10° SSW 13:52:20 40° W 13:56:47 10° NNW
NOSS 8 (E) 4.5 13:52:33 10° W 13:55:39 64° NNW 13:57:24 27° ENE
Ariane Rocket 3.9 13:54:37 19° E 13:56:51 26° NE 14:00:59 10° N
Exosat Rocket 4.0 13:52:35 10° S 13:57:16 40° ESE 14:00:17 21° NE
Cosmos 2219 Rocket 2.2 13:52:04 10° SSW 13:57:39 68° ESE 14:01:47 19° NE
Cosmos 1943 Rocket 2.2 13:52:14 10° NW 13:57:53 60° NE 14:03:26 10° ESE
Cosmos 1697 Rocket 3.9 13:52:59 10° WNW 13:57:54 29° N 14:01:13 17° NE
SeaSat 1 3.2 13:56:33 21° ENE 13:59:05 34° NNE 14:03:32 10° NW
Cosmos 292 Rocket 4.3 13:54:32 10° NW 13:59:23 65° WSW 14:04:12 10° SSE
Cosmos 1782 3.5 13:55:37 10° SSW 13:59:31 53° WNW 14:03:26 10° N
SL-16 R/B 2.9 13:55:38 10° WSW 14:01:06 46° NNW 14:05:20 17° NE
Cosmos 1782 Rocket 3.6 13:57:12 10° N 14:01:31 52° ENE 14:05:46 10° SSE
Cosmos 1763 Rocket 4.2 13:57:57 10° NNW 14:02:32 32° NE 14:04:38 23° ENE
CZ-4 R/B 1.7 14:00:34 10° SE 14:04:11 39° ENE 14:07:47 10° N
Cosmos 1812 2.7 14:01:32 10° S 14:05:21 62° E 14:08:05 18° NNE
USA 215 4.1 14:01:36 18° E 14:05:50 36° SE 14:11:46 10° SSW
Cosmos 1500 4.2 14:02:29 10° NNW 14:06:10 48° W 14:09:48 10° S
Lacrosse 4 Rocket 2.2 14:03:47 10° NW 14:07:35 34° NNE 14:08:52 27° NE
Okean 2 Rocket 3.6 14:05:34 10° N 14:09:44 36° ENE 14:13:53 10° SE
Cosmos 1315 Rocket 3.5 14:07:16 10° SW 14:11:14 54° WNW 14:15:11 11° N
Sich 1 Rocket 3.7 14:07:15 10° N 14:11:37 51° ENE 14:15:54 10° SE
Meteor 1-10 Rocket 4.2 14:06:26 10° SSW 14:12:02 88° ESE 14:17:45 10° NNE
OPS 8737 4.5 14:12:42 10° WNW 14:15:36 48° N 14:16:06 42° NE
Cosmos 405 Rocket 3.8 14:12:48 10° N 14:14:56 25° NNE 14:14:56 25° NNE
Cosmos 1862 Rocket 3.5 14:12:39 10° S 14:17:02 75° E 14:20:43 15° NNE
CSL-04 Rocket 3.7 14:13:12 10° SE 14:18:20 53° ENE 14:23:32 10° NNW
Cosmos 1980 3.9 14:14:06 10° S 14:19:31 50° ESE 14:22:22 27° ENE
PSLV R/B 3.9 14:16:49 19° NNE 14:19:45 70° ESE 14:23:52 10° S
Cosmos 1269 Rocket 4.4 14:14:43 10° SW 14:20:00 63° NW 14:23:59 18° NNE
Cosmos 1975 3.1 14:16:11 10° N 14:20:02 43° ENE 14:23:53 10° SE
Cosmos 1703 Rocket 4.0 14:16:24 10° SSE 14:20:34 39° E 14:21:58 31° NE
Cosmos 2297 4.2 14:15:52 10° NW 14:21:32 62° WSW 14:27:08 10° SSE
Cosmos 1092 Rocket 4.0 14:20:54 10° S 14:27:03 59° E 14:33:10 10° NNE
NOSS 2-2 (D) 3.8 14:23:48 10° W 14:27:55 69° NNW 14:30:03 33° ENE
Cosmos 2263 4.2 14:22:23 10° NW 14:28:10 63° NE 14:32:08 21° ESE
Meteor 1-27 Rocket 3.7 14:22:37 10° S 14:28:26 80° ESE 14:34:23 10° NNE
COBE Rocket 3.7 14:26:15 17° NNE 14:29:46 66° ESE 14:34:26 10° S
Cosmos 1441 Rocket 3.4 14:26:42 10° NNW 14:30:34 73° WSW 14:34:20 10° S
Okean O Rocket 4.0 14:27:15 10° SW 14:30:49 24° W 14:34:24 10° NW
Cosmos 841 Rocket 4.2 14:26:29 10° NNW 14:31:12 33° NE 14:31:58 31° NE
Cosmos 1707 Rocket 4.5 14:28:06 10° SW 14:32:27 49° WNW 14:36:50 10° N
NOAA 15 4.5 14:27:47 10° SSE 14:32:59 67° ENE 14:38:14 10° NNW
COSMOS 2455 3.3 14:29:14 10° W 14:35:07 52° NNW 14:38:12 27° NE
CSL-04 Debris 4.1 14:31:51 10° SSE 14:37:15 69° ENE 14:42:40 10° NNW
SL-16 R/B 4.3 14:32:39 10° NNE 14:37:25 24° NW 14:42:11 10° W
H-2A R/B 4.0 14:34:02 10° S 14:37:33 41° W 14:41:05 10° NNW
Cosmos 2242 Rocket 3.5 14:33:54 10° S 14:38:28 78° ESE 14:41:32 21° NNE
NOSS 3-1 (C) 3.9 14:32:18 10° WNW 14:39:12 85° SSW 14:45:57 16° ESE
ARGOS 4.2 14:41:09 26° NE 14:41:09 26° NE 14:44:55 10° N
Cosmos 1689 Rocket 3.8 14:39:30 18° N 14:41:15 32° WNW 14:44:00 10° SW
NOSS 2-3 (E) 4.5 14:35:42 10° WNW 14:41:23 81° NNE 14:45:26 28° ESE
COSMOS 2428 2.8 14:38:02 10° SW 14:43:45 78° NW 14:46:55 28° NE
Cosmos 1908 Rocket 4.5 14:40:11 10° NNW 14:44:28 50° W 14:48:42 10° S
Cosmos 2251 Rocket 3.4 14:43:08 10° SSW 14:48:27 88° ESE 14:51:03 31° NNE
USA 229 DEB 3.9 14:41:55 10° WNW 14:48:59 79° SSW 14:54:45 18° SE
USA 229 3.9 14:42:01 10° WNW 14:49:05 79° SSW 14:54:48 18° SE
Meteor 2-9 Rocket 4.2 14:43:31 10° NNW 14:49:26 73° ENE 14:55:16 10° SSE
CZ-4B R/B 3.7 14:47:24 11° N 14:50:09 23° WNW 14:52:58 10° WSW
Cosmos 1666 4.1 14:46:44 10° NNW 14:50:16 39° W 14:53:46 10° SSW
COSMO-SKYMED 1 3.3 14:51:41 36° SE 14:51:41 36° SE 14:54:49 10° S
S3M 3.9 14:45:41 10° NNW 14:51:57 67° ENE 14:58:05 10° SSE
Okean-O 3.4 14:47:43 10° S 14:52:04 52° WSW 14:56:26 10° NNW
Envisat 3.5 14:47:18 10° S 14:52:20 61° WSW 14:57:25 10° NNW
NOSS 2-3 (D) 4.5 14:46:38 10° WNW 14:52:21 83° NNE 14:55:54 32° ESE
Cosmos 2344 4.1 14:43:58 10° WNW 14:52:32 87° SSW 15:02:17 16° ESE
Cosmos 540 Rocket 4.1 14:48:26 10° NNW 14:53:08 36° NE 14:53:08 36° NE
Cosmos 468 Rocket 3.9 14:48:42 10° NNW 14:53:50 60° NE 14:55:18 43° ESE
NOSS 3-1 (A) 3.8 14:47:30 10° WNW 14:54:23 89° SSW 14:59:18 26° ESE
Cosmos 1300 Rocket 3.5 14:51:55 10° N 14:56:02 59° ENE 14:56:02 59° ENE
NOSS 3-4 (A) 3.5 14:50:08 10° WSW 14:56:23 84° NNW 14:59:12 38° ENE
NOSS 3-4 (C) 3.5 14:50:14 10° WSW 14:56:29 84° NNW 14:59:18 38° ENE
Meteor 1-18 Rocket 4.3 14:51:27 10° SSE 14:56:52 49° E 14:58:02 42° ENE
RESURS DK-1 2.6 14:53:20 10° SW 14:57:27 65° NW 14:58:22 49° NNE
Cosmos 1939 Rocket 3.7 14:59:10 37° N 14:59:10 37° N 15:01:41 10° N
Okean 1-7 2.9 14:55:18 10° S 14:59:39 68° E 15:00:05 62° ENE
NOAA 11 4.1 14:56:29 10° SSE 15:01:57 78° ENE 15:07:29 10° NNW
Cosmos 407 Rocket 3.9 14:57:06 10° S 15:01:44 43° ESE 15:01:44 43° ESE
Nadezhda 4 Rocket 4.3 14:56:15 10° SSW 15:02:33 70° WNW 15:08:52 10° NNE
Cosmos 2208 Rocket 4.2 14:57:32 10° NNW 15:02:51 50° NE 15:03:20 48° ENE
YAOGAN 1 2.5 14:59:02 10° SSE 15:03:23 85° WSW 15:07:46 10° NNW
Cosmos 2322 4.4 14:57:57 10° WSW 15:03:30 50° NW 15:06:14 28° NNE
Cosmos 1553 Rocket 4.0 14:57:29 10° NNW 15:03:54 90° ENE 15:10:20 10° S
Cosmos 1428 Rocket 4.4 14:58:28 10° S 15:04:36 67° E 15:10:51 10° NNE
NOSS 2-2 (C) 3.9 15:01:36 10° W 15:05:49 62° N 15:06:43 52° NE
Cosmos 2360 Rocket 3.2 15:02:37 10° W 15:07:58 40° NNW 15:10:26 27° NNE
H-2A R/B 3.2 15:10:43 27° NNE 15:10:43 27° NNE 15:13:25 10° N
Cosmos 2369 Rocket 2.3 15:05:41 10° NW 15:11:18 74° SW 15:15:22 19° SSE
Cosmos 1814 Rocket 4.3 15:10:05 10° NNW 15:14:50 47° NNE 15:14:50 47° NNE
Cosmos 1980 Rocket 3.4 15:10:39 10° WNW 15:15:35 29° N 15:16:35 27° NNE
Cosmos 1570 Rocket 3.9 15:15:01 10° NNW 15:20:16 64° NE 15:20:21 64° ENE
Lacrosse 5 rocket 2.1 15:16:30 10° WSW 15:19:56 42° SSW 15:19:56 42° SSW
Cosmos 2151 Rocket 3.6 15:16:27 10° NNW 15:20:22 68° N 15:20:22 68° N
Cosmos 1743 4.0 15:18:02 10° NNW 15:21:42 41° W 15:25:21 10° SSW
SL-16 R/B 2.3 15:17:14 10° SSW 15:22:37 54° SE 15:22:37 54° SE
Cosmos 1656 Rocket 3.5 15:17:20 10° NW 15:22:49 79° NE 15:23:40 63° ESE
Cosmos 2026 Rocket 3.8 15:17:57 10° SSW 15:24:03 89° WNW 15:30:05 11° NNE
YAOGAN 6 4.1 15:21:01 10° SSW 15:24:22 36° W 15:27:47 10° NNW
Aureole 1 Rocket 4.3 15:22:15 10° SSW 15:23:32 24° SSW 15:23:32 24° SSW
SL-4 R/B 3.8 15:22:44 10° WSW 15:25:40 22° S 15:25:40 22° S
NOSS 2-2 (E) 4.0 15:22:39 10° W 15:27:04 63° N 15:27:23 62° NNE
NOSS 0 Rocket 4.0 15:22:13 10° SW 15:28:28 78° NW 15:30:33 45° NE
Cosmos 2237 Rocket 2.2 15:26:10 10° SW 15:31:53 79° NW 15:33:14 54° NNE
Cosmos 2315 Rocket 3.9 15:27:51 10° NNW 15:34:14 68° ENE 15:35:17 58° ESE
ATLAS 2AS CENTAUR R/B 3.1 15:26:38 10° W 15:34:43 73° N 15:37:09 48° ENE
Ariane Rocket 2.8 15:34:49 73° SSE 15:35:20 88° ENE 15:40:26 10° NNW
Cosmos 2333 Rocket 2.9 15:29:53 10° WSW 15:35:29 49° NW 15:37:20 37° NNE
SeaSat 1 2.3 15:36:20 83° NNE 15:36:20 83° NNE 15:41:14 10° NW
Cosmos 2322 Rocket 3.4 15:31:38 10° WNW 15:36:36 30° N 15:37:43 28° N
SKYMED 2 4.4 15:40:21 43° SSW 15:40:21 43° SSW 15:43:18 10° SSW
CZ-4 R/B 2.8 15:35:43 10° SSW 15:39:18 35° W 15:42:52 10° NNW
Cosmos 1943 Rocket 3.1 15:36:12 10° NW 15:41:36 46° WSW 15:46:15 14° S
Cosmos 2219 Rocket 3.0 15:36:30 10° WSW 15:41:57 46° NNW 15:43:31 37° N
Cosmos 883 Rocket 4.4 15:35:51 10° NNW 15:42:16 85° ENE 15:45:30 31° SSE
Cosmos 1697 Rocket 3.7 15:38:20 10° NW 15:42:57 32° N 15:42:57 32° N
Cosmos 1763 Rocket 3.4 15:39:49 10° NNW 15:44:41 81° WNW 15:44:41 81° WNW
SL-16 R/B 3.4 15:41:34 10° WNW 15:46:30 29° N 15:47:11 28° N
Lacrosse 4 Rocket 2.6 15:42:35 10° NW 15:45:11 37° NW 15:45:11 37° NW
Okean 2 Rocket 4.1 15:43:40 10° NNW 15:47:57 46° W 15:52:15 10° SSW
USA 215 3.3 15:48:57 57° SE 15:49:41 61° SSE 15:56:10 10° WSW
Exosat Rocket 4.2 15:53:47 10° WSW 15:58:39 51° NW 15:59:22 47° NNW
Cosmos 1980 4.1 15:58:03 10° WSW 16:03:39 57° NW 16:04:13 54° NNW
Cosmos 1655 Rocket 3.9 16:01:12 10° SSW 16:07:31 87° WNW 16:08:04 76° N
MOS 1 4.3 16:09:50 76° WSW 16:09:50 76° WSW 16:15:33 10° NNW
Meteor 2-8 Rocket 4.5 16:06:16 10° NNW 16:12:21 74° W 16:13:06 65° SSW
Cosmos 841 Rocket 4.3 16:08:27 10° NNW 16:12:04 46° NW 16:12:04 46° NW
ARGOS 4.3 16:22:40 34° NNW 16:22:40 34° NNW 16:25:38 10° NNW
COSMOS 2455 3.6 16:16:14 10° WNW 16:21:21 44° NNW 16:21:21 44° NNW
COSMOS 2428 3.8 16:23:35 10° W 16:28:50 36° NNW 16:28:56 36° NNW
NOSS 3-4 (A) 4.0 16:41:22 10° W 16:46:38 59° NW 16:46:38 59° NW
NOSS 3-4 (C) 4.0 16:41:28 10° W 16:46:44 59° NW 16:46:44 59° NW
H-2A R/B 4.0 16:51:19 22° NNW 16:51:19 22° NNW 16:53:08 10° NNW
Cosmos 2360 Rocket 3.9 16:48:27 10° WNW 16:52:12 27° NNW 16:52:12 27° NNW
Cosmos 2369 Rocket 4.4 16:50:25 10° NW 16:54:33 21° WSW 16:57:15 15° SW
Lacrosse 5 rocket 4.5 16:55:24 10° W 16:55:35 11° W 16:55:35 11° W
Cosmos 1980 Rocket 3.9 16:55:35 10° NW 16:58:20 26° NNW 16:58:20 26° NNW
SL-16 R/B 3.7 17:01:24 10° WSW 17:04:31 32° W 17:04:31 32° W
Cosmos 2237 Rocket 3.9 17:11:29 10° W 17:15:04 30° WNW 17:15:04 30° WNW
Cosmos 2333 Rocket 4.0 17:15:55 10° WNW 17:19:21 26° NW 17:19:21 26° NW
Cosmos 2322 Rocket 4.2 17:17:06 10° NW 17:19:32 22° NNW 17:19:32 22° NNW
ATLAS 2AS CENTAUR R/B 3.5 17:18:22 10° WNW 17:24:34 56° NW 17:24:34 56° NW
Cosmos 2219 Rocket 4.2 17:22:15 10° WNW 17:25:13 24° NW 17:25:13 24° NW
SL-16 R/B 4.3 17:26:55 10° NW 17:29:03 21° NNW 17:29:03 21° NNW
